Time,TemperatureF,DewpointF,PressureIn,WindDirection,WindDirectionDegrees,WindSpeedMPH,WindSpeedGustMPH,Humidity,HourlyPrecipIn,Conditions,Clouds,dailyrainin,SoftwareType,DateUTC
2013-11-18 00:23:00,51.0,48.0,29.73,North,0,0.0,0.0,89,0.02,,,0.13,,2013-11-18 05:23:00,
2013-11-18 00:43:00,54.0,54.0,30.11,East,82,1.0,3.0,99,0.00,,,0.02,,2013-11-18 05:43:00,
2013-11-18 00:53:00,52.0,48.0,29.72,North,0,0.0,0.0,87,0.02,,,0.13,,2013-11-18 05:53:00,
2013-11-18 01:22:00,52.0,48.0,29.66,North,0,0.0,0.0,86,0.00,,,0.13,,2013-11-18 06:22:00,
2013-11-18 01:42:00,52.0,48.0,29.66,North,0,0.0,0.0,86,0.00,,,0.13,,2013-11-18 06:42:00,
2013-11-18 01:52:00,52.0,48.0,29.66,North,0,0.0,0.0,86,0.00,,,0.13,,2013-11-18 06:52:00,
2013-11-18 02:22:00,54.0,50.0,29.58,North,0,0.0,0.0,86,0.00,,,0.13,,2013-11-18 07:22:00,
2013-11-18 02:42:00,54.0,50.0,29.58,North,0,0.0,0.0,86,0.00,,,0.13,,2013-11-18 07:42:00,
2013-11-18 02:52:00,54.0,50.0,29.58,North,0,0.0,0.0,86,0.00,,,0.13,,2013-11-18 07:52:00,
2013-11-18 03:11:00,54.0,50.0,29.58,North,0,0.0,0.0,86,0.00,,,0.13,,2013-11-18 08:11:00,
2013-11-18 03:22:00,56.0,51.0,29.51,North,0,0.0,0.0,83,0.00,,,0.13,,2013-11-18 08:22:00,
2013-11-18 03:32:00,56.0,51.0,29.51,North,0,0.0,0.0,83,0.00,,,0.13,,2013-11-18 08:32:00,
2013-11-18 03:52:00,56.0,51.0,29.51,North,0,0.0,0.0,83,0.00,,,0.13,,2013-11-18 08:52:00,
2013-11-18 04:13:00,56.0,51.0,29.51,North,0,0.0,0.0,83,0.00,,,0.13,,2013-11-18 09:13:00,
2013-11-18 04:22:00,56.0,51.0,29.51,North,0,0.0,0.0,83,0.00,,,0.13,,2013-11-18 09:22:00,
2013-11-18 04:43:00,57.0,52.0,29.44,North,0,0.0,0.0,83,0.01,,,0.14,,2013-11-18 09:43:00,
2013-11-18 04:53:00,57.0,52.0,29.44,North,0,0.0,0.0,83,0.01,,,0.14,,2013-11-18 09:53:00,
2013-11-18 05:03:00,57.0,52.0,29.44,North,0,0.0,0.0,83,0.01,,,0.14,,2013-11-18 10:03:00,
2013-11-18 05:13:00,57.0,52.0,29.44,North,0,0.0,0.0,83,0.01,,,0.14,,2013-11-18 10:13:00,
2013-11-18 18:22:00,48.0,33.0,29.58,North,0,0.0,0.0,55,0.00,,,0.16,,2013-11-18 23:22:00,
2013-11-18 22:54:00,49.0,37.0,29.88,WNW,291,2.0,5.0,63,0.00,,,0.23,,2013-11-19 03:54:00,
2013-11-18 23:13:00,48.0,37.0,29.88,WNW,284,0.0,2.0,65,0.00,,,0.23,,2013-11-19 04:13:00,
2013-11-18 23:24:00,48.0,37.0,29.88,ENE,77,1.0,3.0,65,0.00,,,0.23,,2013-11-19 04:24:00,
2013-11-18 23:42:00,48.0,36.0,29.88,West,266,0.0,3.0,64,0.00,,,0.23,,2013-11-19 04:42:00,
2013-11-18 23:52:00,48.0,36.0,29.89,SW,215,0.0,5.0,62,0.00,,,0.23,,2013-11-19 04:52:00,